Location: �clusier
(49.9361°N, 2.7869°E)
Time: 21:18:22
(UTC+00:00)

Cosmos 1455 - Pass Details

Date: 16 June 2021
Orbit: 496 x 522 km, 82.5° (Epoch: 01 August)

Event Time Altitude Azimuth Distance (km) Brightness Sun altitude
Rises 23:30:24 0° 343° (NNW) 2,654 7.4 -16.6°
Reaches altitude 10° 23:32:39 10° 335° (NNW) 1,757 6.0 -16.6°
Maximum altitude 23:36:13 37° 267° (W) 812 3.1 -16.6°
Enters shadow 23:37:40 26° 222° (SW) 1,026 3.3 -16.6°
